Home   Weather   Lübbecke   Past weeks

Flag for Germany Past Weather in Lübbecke, North Rhine-Westphalia, Germany — Yesterday and Last 2 Weeks

Now
27 °F

Chilly.


Feels Like: 20 °F
Forecast: 25 / 29 °F
Wind: 6 mph from Northeast

Location: Bueckeburg

Current Time: Jan 22, 2017 at 5:31:08 pm

Latest Report: Jan 22, 2017 at 4:20 pm


Visibility: N/A

Pressure: 30.30 "Hg

Humidity: 100%

Dew Point: 27 °F

Location of LübbeckeLocation

Past Weather in Lübbecke — Graph

°F

Lübbecke Temperature Yesterday

Maximum temperature yesterday: 39 °F (at 1:20 pm)
Minimum temperature yesterday: 25 °F (at 7:20 am)
Average temperature yesterday: 31 °F

High & Low Weather Summary for the Past Weeks

 TemperatureHumidityPressure
High43 °F (Jan 11, 2:07 pm)100% (Jan 7, 5:20 pm)30.74 "Hg (Jan 7, 5:20 pm)
Low21 °F (Jan 22, 8:20 am)52% (Jan 19, 2:20 pm)28.91 "Hg (Jan 13, 4:20 am)
Average32 °F89%30.13 "Hg
* Reported Jan 7 3:20 pm — Jan 22 3:20 pm, Lübbecke, Weather by CustomWeather, © 2017

Note: Actual official high and low records may vary slightly from our data, if they occured in-between our weather recording intervals... More about our weather records

Advertising

Lübbecke Weather History for the Previous 24 Hours

Scroll right to see more
 ConditionsComfort  
Time TempWeatherWind HumidityBarometerVisibility
3:20 pm
Sun, Jan 22
27 °FChilly.6 mph100%30.30 "HgN/A
2:20 pm27 °FChilly.7 mph100%30.30 "HgN/A
1:20 pm28 °FChilly.6 mph93%30.30 "HgN/A
12:20 pm30 °FChilly.6 mph86%30.33 "HgN/A
11:20 am30 °FChilly.2 mph86%30.33 "HgN/A
10:20 am28 °FChilly.1 mph93%30.36 "HgN/A
9:20 am25 °FCold.2 mph100%30.33 "HgN/A
8:20 am21 °FCold.2 mph93%30.33 "HgN/A
7:20 am23 °FCold.1 mph100%30.33 "HgN/A
6:20 am23 °FCold.1 mph93%30.33 "HgN/A
5:20 am27 °FChilly.6 mph93%30.33 "HgN/A
4:20 am25 °FCold.2 mph100%30.36 "HgN/A
3:20 am25 °FCold.2 mph100%30.36 "HgN/A
2:20 am25 °FCold.2 mph93%30.39 "HgN/A
1:20 am25 °FCold.2 mph93%30.39 "HgN/A
12:20 am27 °FChilly.2 mph93%30.39 "HgN/A
11:20 pm
Sat, Jan 21
27 °FChilly.2 mph86%30.39 "HgN/A
10:20 pm27 °FChilly.3 mph93%30.39 "HgN/A
9:20 pm27 °FChilly.1 mph93%30.39 "HgN/A
8:20 pm30 °FChilly.2 mph86%30.42 "HgN/A
7:20 pm28 °FChilly.2 mph93%30.42 "HgN/A
6:20 pm34 °FChilly.2 mph81%30.42 "HgN/A
5:20 pm34 °FChilly.7 mph81%30.42 "HgN/A
Weather by CustomWeather, © 2017

See weather overviewHow to use our weather pages